FW1313 Weather Reports


Display with metric or nautical units.
time (UTC)temp
F
wind
direction
speed
MPH
gust
MPH
rain 1hr
in
rain 24hr
in
rain mn
in
humidity
%
barometer
mb
20260506080359 35 287 0.0 0.0 0.00 0.19 0.00 95 1012.8
20260506073359 36 287 0.0 0.0 0.00 0.20 0.00 95 1013.2
20260506070359 36 229 0.0 0.0 0.00 0.20 0.00 95 1013.2
20260506060359 37 145 0.0 0.0 0.00 0.20 0.00 95 1012.6
20260506050402 37 111 0.0 0.0 0.00 0.20 0.00 95 1012.1
20260506043359 38 136 0.0 0.0 0.00 0.20 0.00 95 1011.5
20260506040402 38 136 0.0 0.0 0.00 0.20 0.00 95 1011.3
20260506033402 38 141 0.0 0.0 0.00 0.20 0.00 95 1010.8
20260506030359 38 141 0.0 0.0 0.00 0.21 0.00 95 1010.2
20260506023359 38 141 0.0 0.0 0.00 0.21 0.00 95 1009.9
20260506020359 39 141 0.0 0.0 0.00 0.21 0.00 95 1009.5
20260506013359 39 139 0.0 0.0 0.00 0.21 0.00 95 1009.2
20260506010359 39 149 0.0 0.0 0.00 0.21 0.00 95 1009.1
20260506003359 39 163 0.0 0.0 0.00 0.21 0.00 95 1009.1
20260506000401 39 162 0.0 0.0 0.00 0.21 0.00 95 1008.8
20260505233358 40 226 0.0 0.0 0.00 0.21 0.00 95 1008.7
20260505230359 41 145 0.0 0.0 0.00 0.21 0.00 95 1008.7
20260505223359 41 169 0.0 0.0 0.00 0.21 0.00 94 1008.9
20260505220359 40 179 0.0 0.0 0.00 0.21 0.00 95 1009.0
20260505213359 42 197 0.0 0.0 0.00 0.21 0.00 95 1009.0
20260505210401 41 152 0.0 0.0 0.00 0.21 0.00 95 1009.1
20260505203359 39 205 0.0 0.0 0.00 0.21 0.00 95 1009.0
20260505200359 39 172 0.0 0.0 0.00 0.21 0.00 95 1009.0
20260505193358 38 172 0.0 0.0 0.00 0.21 0.00 95 1009.1
20260505190402 39 155 0.0 0.0 0.00 0.21 0.00 95 1008.9
20260505183402 38 204 0.0 0.0 0.00 0.21 0.00 95 1008.7
20260505180359 37 165 0.0 0.0 0.00 0.21 0.00 95 1008.5
20260505173359 37 214 0.0 0.0 0.01 0.21 0.00 95 1008.1
20260505170359 37 231 0.0 0.0 0.03 0.21 0.00 95 1007.8
20260505163358 37 173 0.0 0.0 0.04 0.19 0.00 95 1007.4
20260505160359 37 231 0.0 0.0 0.03 0.18 0.00 95 1007.1
20260505153358 37 178 0.0 0.0 0.03 0.16 0.00 95 1006.9
20260505150359 36 174 0.0 0.0 0.03 0.14 0.00 95 1006.7
20260505140359 35 204 0.0 0.0 0.07 0.12 0.00 95 1006.6
20260505123402 35 159 0.0 0.0 0.01 0.03 0.00 94 1006.5
20260505120358 35 173 0.0 0.0 0.00 0.02 0.00 94 1006.6
20260505113358 36 192 0.0 0.0 0.00 0.02 0.00 94 1006.9
20260505110358 36 222 0.0 0.0 0.00 0.02 0.00 94 1007.0
20260505100358 36 153 0.0 0.0 0.00 0.02 0.00 94 1007.3
20260505093359 36 180 0.0 0.0 0.00 0.02 0.00 94 1007.5
20260505090358 37 209 0.0 0.0 0.00 0.02 0.00 94 1008.1
20260505083358 37 159 0.0 0.0 0.01 0.02 0.00 94 1008.3